Weather History for Kindakun Rocks, BC

Change the Weather History Date:

Friday, January 3, 2014

  Actual Average Record
Temperature  
Mean Temperature 42 °F -  
Max Temperature 46 °F - - ()
Min Temperature 37 °F - - ()
Degree Days  
Heating Degree Days 24    
Moisture  
Dew Point -    
Average Humidity    
Maximum Humidity    
Minimum Humidity    
Precipitation  
Precipitation 0.02 in - - ()
Sea Level Pressure  
Sea Level Pressure 30.33 in    
Wind  
Wind Speed 12 mph ()    
Max Wind Speed 24 mph    
Max Gust Speed 26 mph    
T = Trace of Precipitation, MM = Missing Value Source: Averaged Metar Reports

Daily Weather History Graph

Daily Weather History Graph

Search for Another Location

Airport:

Trip Planner

Search our weather history database for the weather conditions in past years. The results will help you decide how hot, cold, wet, or windy it might be!

Date:

Astronomy

Jan. 03, 2014 Rise Set
Actual Time 9:05 AM PST 4:46 PM PST
Civil Twilight 8:23 AM PST 5:28 PM PST
Nautical Twilight 7:38 AM PST 6:13 PM PST
Astronomical Twilight 6:56 AM PST 6:55 PM PST
Moon 10:09 AM PST (1/3) 8:35 PM PST (1/3)
Length of Visible Light 9h 04m
Length of Day
7h 40m
Waxing Crescent, 8% of the Moon is Illuminated
Jan 3
Waxing Crescent
Jan 7
First Quarter
Jan 15
Full
Jan 23
Last Quarter
Jan 30
New

Hourly Weather History & Observations

Time (PST) Temp. Windchill Dew Point Humidity Pressure Visibility Wind Dir Wind Speed Gust Speed Precip Events Conditions
12:00 AM 42.8 °F 33.8 °F - N/A% 30.12 in - NW 21.9 mph - N/A   Unknown
1:00 AM 44 °F - - % 30.13 in - NNW 24.2 mph - -  
1:00 AM 43.5 °F 34.3 °F - N/A% 30.13 in - NNW 24.2 mph - N/A   Unknown
2:00 AM 40.1 °F 30.7 °F - N/A% 30.15 in - NNW 19.6 mph - 0.01 in   Unknown
3:00 AM 42.8 °F 34.0 °F - N/A% 30.17 in - North 20.7 mph 26.5 mph 0.01 in   Unknown
4:00 AM 42 °F - - % 30.21 in - North 23.0 mph - -  
4:00 AM 42.3 °F 32.8 °F - N/A% 30.21 in - North 23.0 mph - N/A   Unknown
5:00 AM 43.0 °F 33.5 °F - N/A% 30.24 in - North 24.2 mph - N/A   Unknown
6:00 AM 42.8 °F 34.3 °F - N/A% 30.25 in - North 19.6 mph - N/A   Unknown
7:00 AM 43 °F - - % 30.27 in - North 15.0 mph - -  
7:00 AM 42.6 °F 35.2 °F - N/A% 30.27 in - North 15.0 mph - N/A   Unknown
8:00 AM 42.4 °F 40.7 °F - N/A% 30.30 in - NE 3.5 mph - N/A   Unknown
9:00 AM 41.4 °F 39.4 °F - N/A% 30.32 in - East 3.5 mph - N/A   Unknown
10:00 AM 43 °F - - % 30.35 in - SE 1.2 mph - -  
10:00 AM 42.6 °F - - N/A% 30.35 in - SE 1.2 mph - N/A   Unknown
11:00 AM 43.5 °F - - N/A% 30.37 in - SE 2.3 mph - N/A   Unknown
12:00 PM 44.6 °F - - N/A% 30.39 in - Calm Calm - N/A   Unknown
1:00 PM 44 °F - - % 30.40 in - SSE 1.2 mph - -  
1:00 PM 44.2 °F - - N/A% 30.40 in - SSE 1.2 mph - N/A   Unknown
2:00 PM 43.9 °F 41.3 °F - N/A% 30.40 in - North 4.6 mph - N/A   Unknown
3:00 PM 43.9 °F 39.3 °F - N/A% 30.41 in - North 8.1 mph - N/A   Unknown
4:00 PM 43 °F - - % 30.42 in - North 8.1 mph - -  
4:00 PM 43.0 °F 38.2 °F - N/A% 30.42 in - North 8.1 mph - N/A   Unknown
5:00 PM 42.3 °F - - N/A% 30.43 in - NE 2.3 mph - N/A   Unknown
6:00 PM 41.2 °F - - N/A% 30.43 in - ENE 1.2 mph - N/A   Unknown
7:00 PM 42 °F - - % 30.43 in - NNE 4.6 mph - -  
7:00 PM 41.7 °F 38.8 °F - N/A% 30.43 in - NNE 4.6 mph - N/A   Unknown
8:00 PM 39.0 °F 35.7 °F - N/A% 30.45 in - SE 4.6 mph - N/A   Unknown
9:00 PM 39.0 °F 36.8 °F - N/A% 30.45 in - SSE 3.5 mph - N/A   Unknown
10:00 PM 38 °F - - % 30.44 in - ESE 8.1 mph - -  
10:00 PM 37.8 °F 31.8 °F - N/A% 30.44 in - ESE 8.1 mph - N/A   Unknown
11:00 PM 38.1 °F 32.9 °F - N/A% 30.44 in - ESE 6.9 mph - N/A   Unknown